Flag for Netherlands Weather past 2 weeks in Amsterdam, Netherlands

Now
55 °F

Passing clouds.


Feels Like: 52 °F
Forecast: 52 / 58 °F
Wind: 15 mph from Southwest

Location: Amsterdam Schiphol Airport

Current Time: Oct 23, 2014 at 9:36:19 PM

Latest Report: Oct 23, 2014 at 8:55 PM


Visibility: N/A

Pressure: 30.09 "Hg

Humidity: 88%

Dew point: 52 °F

Location of AmsterdamLocation

Historic Weather in Amsterdam — Graph

°F

Amsterdam temperature yesterday

Maximum temperature yesterday: 55 °F (at 12:25 PM)
Minimum temperature yesterday: 46 °F (at 4:55 AM)
Average temperature yesterday: 51 °F

Past Weeks' High & Low Weather Summary

 TemperatureHumidityPressure
High72 °F (Oct 18, 3:55 PM)100% (Oct 11, 2:55 AM)30.15 "Hg (Oct 11, 2:55 AM)
Low46 °F (Oct 22, 4:55 AM)6% (Oct 21, 5:25 PM)29.42 "Hg (Oct 21, 1:25 PM)
Average57 °F87%29.81 "Hg
* Reported Oct 8 8:25 PM — Oct 23 8:25 PM, Amsterdam, Weather by CustomWeather, © 2014

Note: Actual official high and low records may vary slightly from our data, if they occured in-between our weather recording intervals... More about our weather records

Advertising

Amsterdam weather history for previous 24 hours

 ConditionsComfort  
Time TempWeatherWind HumidityBarometerVisibility
8:25 PM
Oct 23
55 °FPartly cloudy.15 mph88%30.09 "HgN/A
7:55 PM55 °FPartly cloudy.14 mph88%30.09 "HgN/A
7:25 PM55 °FBroken clouds.13 mph88%30.09 "HgN/A
6:55 PM55 °FBroken clouds.13 mph88%30.09 "HgN/A
6:25 PM55 °FBroken clouds.13 mph82%30.09 "HgN/A
5:55 PM55 °FBroken clouds.14 mph88%30.12 "HgN/A
5:25 PM55 °FBroken clouds.15 mph82%30.12 "HgN/A
4:55 PM57 °FPartly sunny.15 mph77%30.12 "HgN/A
4:25 PM57 °FPartly sunny.13 mph77%30.12 "HgN/A
3:55 PM57 °FPartly sunny.14 mph72%30.12 "HgN/A
3:25 PM57 °FPartly sunny.15 mph77%30.12 "HgN/A
2:55 PM57 °FPartly sunny.12 mph82%30.12 "HgN/A
2:25 PM57 °FPartly sunny.16 mph82%30.12 "HgN/A
1:55 PM57 °FBroken clouds.12 mph82%30.12 "HgN/A
1:25 PM57 °FBroken clouds.13 mph82%30.15 "HgN/A
12:55 PM57 °FBroken clouds.13 mph82%30.15 "HgN/A
12:25 PM55 °FBroken clouds.13 mph88%30.15 "HgN/A
11:55 AM55 °FBroken clouds.13 mph88%30.15 "HgN/A
11:25 AM55 °FScattered clouds.12 mph88%30.15 "HgN/A
10:55 AM55 °FBroken clouds.12 mph88%30.15 "HgN/A
10:25 AM54 °FBroken clouds.12 mph94%30.15 "HgN/A
9:55 AM54 °FOvercast.10 mph94%30.12 "HgN/A
9:25 AM54 °FMore clouds than sun.12 mph94%30.12 "Hg5 mi
8:55 AM54 °FMostly cloudy.10 mph94%30.12 "HgN/A
8:25 AM54 °FPassing clouds.10 mph88%30.12 "HgN/A
7:55 AM52 °FPassing clouds.8 mph94%30.12 "HgN/A
7:25 AM52 °FOvercast.7 mph94%30.12 "HgN/A
6:55 AM52 °FPassing clouds.7 mph94%30.12 "HgN/A
6:25 AM52 °FPassing clouds.8 mph94%30.12 "HgN/A
5:55 AM52 °FPassing clouds.8 mph94%30.12 "HgN/A
5:25 AM52 °FPassing clouds.5 mph94%30.12 "HgN/A
4:55 AM52 °FPassing clouds.7 mph94%30.12 "HgN/A
4:25 AM52 °FPassing clouds.7 mph94%30.15 "HgN/A
3:55 AM50 °FPassing clouds.5 mph100%30.15 "HgN/A
3:25 AM52 °FPassing clouds.6 mph94%30.15 "HgN/A
2:55 AM52 °FPassing clouds.7 mph94%30.15 "HgN/A
2:25 AM52 °FPassing clouds.6 mph94%30.15 "HgN/A
1:55 AM52 °FPassing clouds.6 mph94%30.15 "HgN/A
1:25 AM52 °FPassing clouds.6 mph94%30.15 "Hg4 mi
12:55 AM52 °FPassing clouds.5 mph94%30.15 "HgN/A
12:25 AM52 °FPassing clouds.7 mph94%30.15 "HgN/A
11:55 PM
Oct 22
52 °FPassing clouds.9 mph88%30.15 "HgN/A
11:25 PM48 °FPassing clouds.3 mph94%30.15 "HgN/A
10:55 PM46 °FPassing clouds.2 mph93%30.15 "HgN/A
10:25 PM48 °FPassing clouds.2 mph87%30.15 "HgN/A
9:55 PM48 °FPassing clouds.5 mph82%30.15 "HgN/A
9:25 PM48 °FPassing clouds.6 mph82%30.15 "HgN/A
Weather by CustomWeather, © 2014

See weather overviewHow to use our weather pages